Hourly Data Report for June 27, 2021

BORDEN AWOS
ONTARIO
Current Station Operator: DND

44°16'20.000" N
79°54'42.000" W
222.50 m
611B002
71534
YBN

Download Data

Hourly Data (June 2021)
Hourly Data Report for June 27, 2021
TIME
LST
Temp Definition
°C
Dew Point Definition
°C
Rel Hum Definition
%
Precip. Amount Definition
mm

Wind Dir Definition
10's deg

Wind Spd Definition
km/h
Visibility Definition
km
Stn Press Definition
kPa
Hmdx Definition


Wind Chill Definition


Weather Definition


00:00 25.2 19.9 73   20 17 14.5 98.50 33   LegendNANA
01:00 25.2 19.5 71   19 33 14.5 98.47 32   LegendNANA
02:00 25.2 19.0 69   20 28 14.5 98.44 32   LegendNANA
03:00 25.1 18.9 69   21 26 14.5 98.49 32   LegendNANA
04:00 24.7 18.9 70   21 26 14.5 98.48 31   LegendNANA
05:00 23.9 18.9 74   20 19 14.5 98.51 31   LegendNANA
06:00 24.3 19.2 73   22 17 14.5 98.53 31   LegendNANA
07:00 25.3 19.6 71   22 30 14.5 98.55 33   LegendNANA
08:00 26.9 20.1 66   23 24 14.5 98.60 35   LegendNANA
09:00 27.6 20.5 65   23 22 14.5 98.63 36   LegendNANA
10:00 29.6 20.8 59   22 24 14.5 98.65 38   LegendNANA
11:00 29.3 20.8 60   22 30 14.5 98.70 38   LegendNANA
12:00 30.3 20.9 57   22 31 14.5 98.73 39   LegendNANA
13:00 29.7 20.6 58   23 31 14.5 98.74 38   LegendNANA
14:00 30.0 20.9 58   26 28 14.5 98.73 38   LegendNANA
15:00 30.4 20.4 55   22 26 14.5 98.70 38   LegendNANA
16:00 30.4 20.5 56   23 28 14.5 98.75 38   LegendNANA
17:00 28.7 20.9 63   23 20 14.5 98.77 37   Rain
18:00 30.0 20.9 58   20 30 14.5 98.74 38   LegendNANA
19:00 28.4 21.5 66   21 17 14.5 98.76 37   LegendNANA
20:00 27.7 21.2 68   21 24 14.5 98.77 36   LegendNANA
21:00
22:00
23:00 21.7 21.4 98   31 11 1.8 98.97 30   Heavy Rain

Notes on Data Quality.

Legend

  • E = Estimated
  • M = Missing
  • NA = Not Available*
  • [empty] = Indicates an unobserved value
Date modified: